CAPE
0 0 0 0 0 0 0 0 0 4 0 0 15 5 5 10 48 30 17 14 0 0 0 46 122 189 1 4 20 35 39 22 6 0 0 8 13 1 14 37 68 82 111 131
0 0 0 0 0 0 0 0 0 0 1 10 15 10 2 0 0 0 0 0 0 0 266 228 163 109 40 19 4 0 3 68 17 41 3 7 0 0 0 0 12 31 116 76
0 0 0 0 0 0 3 0 0 0 0 3 57 42 0 9 0 6 0 0 0 0 303 247 139 124 65 36 0 6 7 19 39 0 0 0 0 0 0 0 0 0 35 20
0 0 0 0 0 0 1 23 3 2 0 0 0 0 10 1 0 0 0 3 15 3 70 232 157 172 129 99 13 0 0 0 0 0 0 0 0 0 0 2 10 13 34 16
0 0 3 0 0 2 0 15 13 7 0 0 0 0 0 0 0 0 3 278 242 61 167 105 46 81 58 0 0 0 0 0 0 0 0 0 0 0 2 33 37 30 24 12
0 0 0 0 0 0 0 0 0 0 0 0 0 0 0 6 1 0 21 149 143 52 0 17 49 27 0 0 0 0 5 8 0 0 0 0 0 0 18 20 27 18 1 0
0 0 0 15 0 0 0 0 0 0 0 0 0 0 0 45 0 0 0 1 12 33 146 108 44 0 0 2 12 29 19 8 1 0 0 0 2 21 7 0 0 0 0 0
0 0 31 17 10 1 0 0 0 0 0 0 1 0 0 30 1 0 0 0 0 0 75 3 0 13 7 12 2 1 1 0 0 0 0 0 0 0 0 0 0 0 0 0
0 0 99 2 0 0 0 0 0 0 0 0 0 0 0 0 0 0 0 0 0 0 0 0 0 0 0 0 0 0 0 0 0 0 0 0 0 0 0 0 0 0 0 0
11 60 187 58 23 0 4 0 0 0 0 0 0 0 0 0 0 1 0 0 0 0 0 0 0 0 0 0 0 0 0 0 0 0 0 0 0 0 0 0 0 0 0 0
84 68 74 64 21 2 2 1 6 0 0 0 0 0 0 0 0 0 0 0 0 0 0 0 0 0 0 0 0 0 0 0 0 0 0 0 0 0 0 0 0 0 0 0
5 95 48 7 2 6 0 6 0 0 0 0 0 0 0 0 0 0 0 0 0 0 0 0 0 0 0 0 0 0 0 0 0 0 0 0 0 0 0 0 0 0 0 0
2 0 1 0 9 52 1 0 0 0 0 0 0 0 0 0 0 0 0 0 0 0 0 0 0 0 0 0 0 0 0 0 0 0 0 0 0 0 0 0 0 0 0 0
0 1 6 3 9 12 0 15 5 0 0 0 0 5 0 0 0 0 0 0 0 0 0 0 0 0 0 0 0 0 0 0 0 0 0 0 0 0 0 0 0 0 0 0
0 2 53 51 92 48 7 18 0 1 3 3 15 2 0 0 0 0 0 0 0 0 0 0 0 0 0 0 0 0 0 0 0 0 0 0 0 0 0 0 0 0 0 0
0 0 22 65 50 0 43 108 69 34 6 0 7 3 4 0 0 0 0 0 0 0 0 0 0 0 0 0 0 0 0 0 0 0 0 0 0 0 0 0 0 0 0 0
0 1 2 0 0 0 6 75 36 2 0 1 0 0 0 0 0 0 0 0 0 0 0 0 0 0 0 0 0 0 0 0 0 0 0 0 0 0 0 0 0 0 0 0
0 0 0 0 0 0 13 9 5 6 0 0 0 0 0 0 0 0 0 0 0 0 0 0 0 0 0 0 0 0 0 0 0 0 0 0 0 0 0 0 0 0 0 0
0 0 0 0 0 0 11 11 18 4 0 0 0 0 0 0 0 0 0 0 0 0 0 0 0 0 0 0 0 0 0 0 0 0 0 0 0 0 0 0 0 0 0 0
0 0 0 0 0 0 1 0 3 14 0 0 0 0 0 0 0 0 0 0 0 0 0 0 0 0 0 0 0 0 0 0 0 0 0 0 0 0 0 0 0 0 0 0
0 0 1 0 0 0 3 15 10 4 6 0 0 0 0 0 0 0 0 0 0 0 0 0 0 0 0 0 0 0 0 0 0 0 0 0 0 0 0 0 0 0 0 0
0 0 0 0 22 2 36 20 3 30 0 0 0 0 0 0 0 0 0 0 0 0 0 0 0 0 0 0 0 0 0 0 0 0 0 0 0 0 0 0 0 0 0 0
5 3 0 1 38 0 13 50 3 0 0 0 0 0 0 0 0 0 0 0 0 0 0 0 0 0 0 0 0 0 0 0 0 0 0 0 0 0 0 0 0 0 0 0
7 2 3 10 60 6 7 0 0 0 0 0 0 0 0 0 0 0 0 0 0 0 0 0 0 2 3 0 0 0 0 0 0 0 0 0 0 0 0 0 0 0 0 0
1 1 0 7 10 13 0 0 0 0 0 0 0 0 0 0 0 0 0 0 0 0 0 1 12 0 4 0 0 0 0 0 0 0 0 0 0 0 0 0 0 0 0 0
6 16 43 41 4 1 0 0 0 0 0 0 0 0 0 0 0 0 0 0 0 2 6 57 54 37 32 25 21 0 0 0 0 0 0 0 0 0 0 0 0 0 0 0
CIN
0 0 0 0 0 0 0 0 0 -42 0 0 -93 -145 -193 -220 -193 -153 -225 -338 0 0 0 -295 -171 -234 -68 -82 -73 -113 -93 -215 -162 -9 0 -87 -120 -139 -125 -139 -98 -106 -53 -40
0 0 0 0 0 0 0 0 0 0 -12 -32 -118 -144 -230 0 0 0 0 0 0 0 -170 -177 -203 -249 -244 -154 -79 0 -58 -141 -101 -101 -111 -152 -39 -87 0 0 -75 -108 -54 -51
0 -13 -5 0 0 0 -24 0 0 0 0 -81 -112 -128 -1 -298 -87 -353 0 0 0 0 -205 -154 -178 -168 -114 -91 0 -163 -189 -124 -94 0 0 0 -194 0 0 0 0 -10 -68 -65
0 0 0 -6 0 -3 -8 -21 -21 -9 0 0 0 0 -146 -166 0 0 0 -113 -267 -236 -333 -177 -167 -82 -106 -101 -183 0 0 0 0 0 0 0 0 0 0 -47 -89 -86 -102 -97
0 0 -34 0 0 -11 0 -29 -35 -22 0 0 0 0 0 -50 0 0 -19 -121 -131 -283 -242 -184 -165 -148 -150 0 0 0 0 0 0 0 0 -12 0 0 -32 -56 -38 -86 -126 -136
0 0 0 0 0 0 0 0 0 0 0 0 0 0 0 -135 -69 0 -99 -190 -176 -251 0 -266 -132 -101 0 0 0 0 -141 -120 0 0 0 0 0 -2 -34 -59 -84 -115 -53 0
0 0 -12 -33 0 0 0 0 0 0 0 0 0 0 0 -139 -45 0 0 -133 -325 -268 -191 -214 -203 0 0 -85 -127 -118 -123 -138 -26 0 0 0 -32 -60 -79 0 0 -13 0 0
0 -5 -35 -64 -48 -16 -3 0 -1 0 0 0 -15 0 -14 -169 -8 0 0 0 0 0 -221 -17 0 -120 -101 -93 -39 -12 -13 0 0 0 0 0 0 0 0 0 0 0 0 0
0 0 -53 -58 0 0 0 0 0 0 0 0 0 -17 0 -44 0 0 0 0 0 0 0 0 0 0 0 0 0 0 0 0 0 0 0 0 0 0 0 0 0 0 0 0
-45 -51 -53 -50 -71 0 -105 0 0 0 -1 0 0 0 0 0 0 -52 0 0 0 0 0 0 0 0 0 0 0 0 0 0 0 0 0 0 0 0 0 0 0 0 0 0
-129 -78 -49 -46 -66 -35 -46 -26 -106 0 0 0 0 0 0 0 0 0 0 -65 0 0 0 0 0 0 0 0 0 0 0 0 0 0 0 0 0 0 0 0 0 0 0 0
-53 -111 -79 -44 -51 -150 0 -47 -4 -1 0 0 0 0 0 0 0 0 0 0 0 0 0 0 0 0 0 0 0 0 0 0 0 0 0 0 0 0 0 0 0 0 0 0
-38 -5 -17 0 -34 -74 -15 0 0 0 0 0 0 0 0 0 0 0 0 0 0 0 0 0 0 0 0 0 0 0 0 0 0 0 0 0 0 0 0 0 0 0 0 0
0 -68 -69 -34 -13 -30 -3 -33 -48 0 0 0 0 -53 0 0 0 0 0 0 0 0 0 0 0 0 0 0 0 0 0 0 0 0 0 0 0 0 0 0 0 0 0 0
0 -33 -100 -88 -29 -37 -38 -25 0 -31 -53 -27 -22 -41 0 0 0 0 0 0 0 0 0 0 0 0 0 0 0 0 0 0 0 0 0 0 0 0 0 0 0 0 0 0
0 0 -76 -48 -71 0 -91 -15 -24 -22 -8 0 -56 -47 -152 0 0 0 0 0 0 0 0 0 0 0 0 0 0 0 0 0 0 0 0 0 0 0 0 0 0 0 0 0
0 -35 -45 0 0 0 -68 -20 -28 -6 0 -24 0 0 0 0 0 0 0 0 0 0 0 0 0 0 0 0 0 0 0 0 0 0 0 0 0 0 0 0 0 0 0 0
0 0 0 0 0 0 -61 -61 -41 -13 -6 0 0 0 0 0 0 0 0 0 0 0 0 0 0 0 0 0 0 0 0 0 0 0 0 0 0 0 0 0 0 0 0 0
0 0 0 -1 0 0 -15 -49 -17 -29 0 0 0 0 0 0 0 0 0 0 0 0 0 0 0 0 0 0 0 0 0 0 0 0 0 0 0 0 0 0 0 0 0 0
0 0 0 0 0 0 -57 -51 -72 -60 0 0 0 0 0 0 0 0 0 0 0 0 0 0 0 0 0 0 0 0 0 0 0 0 0 0 0 0 0 0 0 0 0 0
0 0 -14 -4 0 -2 -59 -83 -18 -7 -28 0 0 0 0 0 0 0 0 0 0 0 0 0 0 0 0 0 0 0 0 0 0 0 0 0 0 0 0 0 0 0 0 0
0 0 0 -2 -11 -2 -84 -63 -12 -20 0 0 0 0 0 0 0 0 0 0 0 0 0 0 0 0 0 0 0 0 0 0 0 0 0 0 0 0 0 0 0 0 0 0
-23 -59 0 -3 -27 0 -83 -39 -5 0 0 0 0 0 0 0 0 0 0 0 0 0 0 0 0 0 0 0 0 0 0 0 0 0 0 0 0 0 0 0 0 0 0 0
-13 -63 -72 -65 -24 -42 -50 0 0 0 0 0 0 0 0 0 0 0 0 0 0 0 0 0 0 -42 -39 0 0 0 0 0 0 0 0 0 0 0 0 0 0 0 0 0
-14 -36 0 -38 -50 -36 0 0 0 0 0 0 0 0 0 0 0 0 0 0 0 0 0 -20 -62 -3 -39 0 0 0 0 0 0 0 0 0 0 0 0 0 0 0 0 0
-139 -64 -49 -15 -60 -45 0 0 0 0 0 0 0 -5 0 0 0 0 0 -11 -16 -26 -2 -26 -28 -24 -30 -40 -58 0 0 0 0 0 0 0 0 0 0 0 0 0 0 0
Wind_Speed
22 19 20 21 24 24 22 22 25 32 34 27 19 19 20 21 19 17 17 19 26 22 17 16 10 10 11 6 6 6 7 5 5 2 7 13 14 19 20 25 35 35 16 12
25 20 19 24 26 27 30 28 32 32 31 18 15 17 17 17 16 18 21 22 22 23 22 19 17 15 13 14 12 10 5 5 4 6 9 11 14 20 17 23 23 32 17 11
25 16 20 29 34 33 32 27 32 32 27 20 13 21 20 17 17 18 19 20 19 19 21 19 18 15 14 14 12 7 11 9 10 9 11 14 16 16 19 21 24 32 16 14
18 16 24 21 23 25 30 30 32 32 30 28 18 29 25 27 26 25 28 22 21 19 20 18 17 14 15 12 12 12 12 12 12 10 10 11 13 13 18 20 26 25 20 21
19 19 30 26 5 20 34 34 37 35 28 24 23 22 21 25 27 28 26 24 23 21 21 20 18 16 16 15 14 14 14 14 14 12 12 13 14 11 13 18 22 24 23 24
18 14 18 19 12 25 34 29 29 26 23 24 22 22 20 23 26 26 23 21 22 21 22 22 21 18 17 16 15 14 15 16 15 13 15 16 15 14 19 21 23 25 25 25
12 17 29 19 18 24 21 28 33 31 30 28 21 23 18 17 25 22 17 18 20 21 22 22 21 19 18 17 16 16 17 17 16 15 17 17 20 19 19 24 27 29 32 32
9 21 19 18 16 18 20 23 25 31 27 24 23 22 18 15 27 19 14 15 18 21 21 22 21 20 19 18 19 19 19 18 17 18 20 19 20 22 24 26 27 29 31 34
21 23 21 18 16 22 20 26 21 18 24 31 19 17 12 21 19 11 11 13 16 18 19 19 19 20 20 19 18 18 18 19 19 19 20 22 23 23 25 26 27 28 29 30
20 28 23 21 22 19 16 11 20 16 26 26 20 20 13 10 12 8 10 12 14 15 15 16 15 16 16 16 16 18 18 20 20 20 20 20 21 23 24 24 25 25 27 28
24 20 27 26 24 17 21 17 18 17 14 18 17 16 10 6 9 6 8 10 11 12 13 13 13 13 14 15 16 19 20 20 19 19 19 20 21 22 22 23 24 26 29 28
23 24 26 28 21 21 22 16 13 14 20 15 14 16 6 5 12 6 7 8 9 10 11 11 11 12 13 15 17 16 18 19 18 18 19 20 19 20 22 22 25 28 30 29
21 26 39 30 26 22 18 18 20 18 18 11 9 12 5 5 11 6 7 7 7 8 8 10 12 14 15 15 15 15 16 17 18 19 19 18 18 20 21 23 27 29 28 28
18 24 19 27 32 27 28 26 14 5 11 11 2 11 4 3 5 7 7 8 9 8 9 11 11 12 13 13 13 14 15 15 17 17 16 16 18 19 21 24 26 27 27 29
21 26 25 27 32 26 23 28 7 14 5 7 2 6 4 5 4 6 8 7 8 10 9 10 11 10 11 12 12 13 14 14 14 13 13 15 18 17 21 24 24 25 27 27
21 25 27 27 23 31 33 21 6 8 17 22 7 6 5 6 5 7 9 8 7 7 8 10 10 11 10 11 11 12 13 13 12 12 12 15 16 17 21 24 23 23 25 25
15 19 25 24 26 28 29 26 19 15 15 5 5 9 5 5 5 6 7 8 7 7 9 9 10 11 11 10 10 12 13 12 13 11 15 14 15 17 20 22 22 21 23 22
16 15 23 23 21 20 17 21 19 20 12 13 11 5 5 6 7 6 7 8 8 8 10 11 12 14 12 11 11 11 12 12 13 11 14 12 13 17 19 20 21 17 19 18
19 16 14 16 12 24 18 17 15 19 18 16 8 6 9 11 15 18 11 11 10 11 13 14 14 14 12 11 10 10 12 11 12 10 12 9 10 15 17 18 18 14 13 12
19 18 16 16 11 16 20 17 20 21 12 12 10 11 12 14 18 17 12 11 12 13 15 16 16 14 12 10 10 11 11 12 11 10 10 9 8 11 14 14 15 14 11 8
24 22 17 17 17 8 19 15 11 14 12 16 12 14 15 20 20 13 9 11 11 14 14 16 14 13 11 11 9 10 10 10 9 9 9 9 8 9 11 12 11 12 11 8
23 21 20 17 18 19 15 15 13 11 16 16 16 16 17 16 17 15 12 13 14 15 16 15 13 11 12 11 10 10 10 10 10 11 10 9 8 9 10 11 8 8 12 11
22 17 19 14 18 18 13 17 15 15 16 19 17 16 16 17 19 21 18 12 13 14 14 15 16 14 13 13 11 11 11 12 13 12 11 10 9 10 10 9 7 6 9 11
18 17 17 22 15 14 15 16 19 19 18 18 17 14 14 17 17 19 18 15 14 15 14 17 21 21 18 16 15 13 15 16 15 14 13 11 10 10 10 9 6 6 5 5
19 21 19 20 12 16 17 17 17 19 20 20 18 15 15 16 18 18 19 18 20 20 20 21 24 25 24 24 19 17 18 17 15 15 15 13 11 10 11 10 6 5 6 4
16 19 17 19 16 16 21 23 19 22 25 24 24 24 27 25 23 22 20 20 24 25 27 25 25 27 29 30 28 26 22 18 16 16 16 14 13 12 12 11 10 7 7 8
Wind_Direction
291 311 315 313 315 319 325 321 310 308 319 326 343 347 351 1 9 7 9 13 9 20 29 35 67 61 85 65 43 43 73 113 114 53 360 354 351 348 344 332 304 314 327 332
282 309 313 313 304 298 294 293 285 307 324 350 359 356 5 9 15 11 4 9 19 22 38 43 55 76 98 113 118 114 42 44 38 34 16 9 359 345 334 331 321 324 326 327
281 315 314 301 296 279 277 304 295 300 326 347 353 342 351 359 360 359 357 2 15 26 30 44 47 60 91 92 101 70 42 49 33 33 15 9 0 356 336 332 326 325 326 331
311 312 276 337 335 298 297 285 288 301 312 319 339 321 335 342 346 351 346 3 16 26 35 40 47 63 52 75 75 55 47 38 30 37 28 21 4 2 347 343 338 341 350 341
214 305 292 309 280 241 292 270 283 299 317 323 328 331 335 339 338 338 342 359 11 23 31 39 40 50 62 64 61 52 46 32 23 30 35 25 21 13 3 351 345 343 343 341
216 318 318 317 304 316 287 305 304 318 326 317 326 331 340 336 336 339 344 358 1 26 28 32 40 54 52 54 51 44 27 21 30 46 35 26 19 7 355 349 345 342 341 337
220 263 306 341 342 317 324 307 304 308 314 313 327 326 342 352 329 343 2 357 359 18 23 27 35 39 39 37 36 34 29 36 45 43 29 19 9 8 6 357 351 346 338 333
343 328 331 333 342 342 340 328 316 308 313 316 322 320 335 353 320 349 14 16 19 25 30 31 32 35 36 38 36 41 40 39 35 27 19 27 27 17 10 2 356 348 342 337
332 322 337 333 332 326 323 313 328 326 313 301 326 328 355 350 332 18 21 20 22 30 34 37 42 38 36 44 47 45 42 36 35 38 35 28 23 15 7 0 355 351 348 345
350 318 335 334 330 335 334 344 320 322 313 318 317 323 325 346 348 39 20 22 26 34 39 42 50 51 49 52 54 46 41 43 43 38 33 26 18 12 5 5 4 359 353 349
346 342 332 333 331 338 330 325 317 316 335 328 330 330 353 10 6 35 24 33 34 43 52 57 60 62 57 55 52 49 49 45 41 37 29 21 16 15 16 9 5 359 355 355
351 338 329 323 329 336 323 329 328 319 320 338 346 336 2 53 354 39 44 50 64 58 62 59 65 56 56 54 53 52 45 40 38 30 23 21 24 17 12 12 8 4 1 2
345 327 316 320 315 320 325 322 320 323 324 337 352 359 105 77 356 68 55 63 64 67 65 54 55 54 59 53 52 49 43 38 32 25 26 25 21 16 17 14 10 10 11 11
347 331 332 319 299 312 304 309 323 352 335 343 349 353 70 81 44 48 43 45 51 60 48 45 60 62 53 50 50 43 39 37 31 30 28 24 21 22 23 17 16 17 18 16
334 325 320 315 302 304 313 302 269 316 307 318 341 356 117 130 82 35 17 30 17 10 34 44 56 50 44 43 40 39 38 36 37 35 29 24 23 34 24 20 22 24 24 23
336 325 316 307 313 295 289 312 290 294 311 310 319 348 74 49 26 16 8 10 16 29 36 34 41 33 34 37 40 37 33 36 38 35 29 27 41 35 25 23 27 29 28 28
357 344 320 312 310 297 297 296 313 326 315 346 5 345 63 43 19 11 4 1 10 13 18 27 30 23 24 27 33 26 28 37 35 35 29 45 41 32 28 28 31 34 34 35
358 355 323 315 319 320 316 309 309 298 338 324 334 20 49 34 13 21 359 354 355 7 6 9 10 8 14 15 19 25 29 30 29 32 33 45 38 31 29 30 32 37 38 40
20 7 5 344 340 309 306 324 327 319 336 305 319 28 10 11 2 351 360 353 351 354 356 355 359 2 5 6 12 17 18 20 20 22 25 34 37 29 29 31 30 37 39 42
54 32 17 11 355 309 309 335 309 314 346 356 359 10 360 351 339 341 357 1 353 351 350 349 350 356 2 8 10 11 12 13 12 18 21 29 35 29 26 29 31 36 41 40
11 13 33 29 41 260 304 357 35 344 7 351 20 358 348 338 341 355 5 352 349 346 350 352 353 350 348 353 0 358 358 359 2 7 12 22 26 23 21 26 31 35 40 47
12 23 25 30 17 1 54 40 24 24 351 360 2 360 358 359 356 355 349 343 340 339 342 342 342 341 339 340 343 343 344 346 353 356 0 6 13 14 18 22 24 37 36 41
5 29 10 37 22 31 78 33 34 25 9 0 2 360 0 355 350 346 347 345 342 340 341 340 332 332 331 329 330 331 332 341 345 347 348 353 359 5 12 15 19 28 29 31
19 33 15 346 14 60 54 42 24 24 16 14 13 15 6 356 354 347 346 345 339 339 333 332 328 324 325 324 320 317 326 332 335 340 340 343 344 349 359 5 10 8 10 24
27 16 360 295 41 34 27 30 24 13 8 8 10 7 357 348 340 339 339 335 332 333 332 331 328 319 322 322 322 319 320 323 323 329 334 332 333 335 342 346 346 349 358 20
32 21 18 18 20 22 4 14 18 12 352 3 357 360 355 350 336 333 332 337 332 333 335 335 334 323 320 319 319 320 319 313 311 317 324 325 325 325 327 332 333 330 336 340